Location: Banff
(51.1670°N, 115.5670°W)
Time: 07:40:45
(UTC-06:00)

Amateur Radio Satellites - All Passes

Search period start: 30 October 2014 07:10
Search period end: 31 October 2014 07:10
Location: Banff, 51.1670°N, 115.5670°W

Satellite Date Start Highest point End Downlink Frequencies (MHz)
Time Altitude Azimuth
JAS-2 30 Oct 07:19:33 07:27:25 75° 103° (ESE) 07:35:12 435.800 - 435.900 CW/SSB, 435.910 FM
TMSAT-1 30 Oct 07:23:01 07:24:22 11° 314° (NW) 07:25:44 436.925 FM
AO-7 30 Oct 07:43:05 07:50:57 49° 303° (WNW) 07:58:49 29.400 - 29.500 MHz
Sapphire 30 Oct 07:49:52 07:53:06 16° 351° (N) 07:56:20 437.095 MHz 1200 baud AX-25 AFSK
Saudisat 1A 30 Oct 07:50:03 07:54:26 74° 129° (SE) 07:58:51 436.775 MHz
STRAND 1 30 Oct 08:07:08 08:12:05 48° 261° (W) 08:17:06 ?
RS-15 30 Oct 08:07:24 08:17:53 50° 245° (WSW) 08:28:48 29.354 - 29.394 USB, Beacon 29.352 USB
PCSat 30 Oct 08:12:28 08:15:33 15° 358° (N) 08:18:37 145.825 MHz
Uosat F 30 Oct 08:18:19 08:21:26 17° 307° (NW) 08:24:33 435.120 FM
MaSat-1 30 Oct 08:25:18 08:27:57 83° 237° (WSW) 08:30:23 437.345 MHz
Hamsat 30 Oct 08:44:49 08:48:24 28° 295° (WNW) 08:51:59 145.90 MHz
SO-67 30 Oct 08:55:44 08:59:13 76° 103° (ESE) 09:02:39 435.3500 MHz FM
JAS-2 30 Oct 09:05:07 09:11:52 34° 304° (WNW) 09:18:39 435.800 - 435.900 CW/SSB, 435.910 FM
Saudisat 1A 30 Oct 09:30:38 09:34:26 27° 330° (NNW) 09:38:15 436.775 MHz
Sapphire 30 Oct 09:35:01 09:38:43 18° 18° (NNE) 09:42:24 437.095 MHz 1200 baud AX-25 AFSK
AO-7 30 Oct 09:36:55 09:41:53 18° 327° (NNW) 09:46:52 29.400 - 29.500 MHz
HO-68 30 Oct 09:40:02 09:45:50 25° 90° (E) 09:51:35 435.675 MHz FM
PCSat 30 Oct 09:56:56 10:01:03 21° 24° (NNE) 10:05:09 145.825 MHz
RS-15 30 Oct 10:24:05 10:27:18 12° 269° (W) 10:30:32 29.354 - 29.394 USB, Beacon 29.352 USB
KITSAT 1 30 Oct 10:25:52 10:29:09 13° 97° (E) 10:32:26 435.175 FM
SO-67 30 Oct 10:30:31 10:31:40 11° 301° (WNW) 10:32:48 435.3500 MHz FM
UKube-1 30 Oct 10:45:24 10:49:01 25° 94° (E) 10:52:37 145.840 MHz, 145.915 MHz
JAS-2 30 Oct 10:52:37 10:54:44 11° 326° (NW) 10:56:51 435.800 - 435.900 CW/SSB, 435.910 FM
ZACube-1 30 Oct 10:53:02 10:55:09 14° 87° (E) 10:57:16 437.345 MHz
Saudisat 1A 30 Oct 11:12:50 11:15:23 15° 354° (N) 11:17:57 436.775 MHz
Sapphire 30 Oct 11:18:21 11:23:33 43° 42° (NE) 11:28:44 437.095 MHz 1200 baud AX-25 AFSK
Oscar 11 30 Oct 11:21:04 11:25:18 53° 100° (E) 11:29:31 145.825 FM, Beacon 2401.500 USB
HO-68 30 Oct 11:27:05 11:34:19 80° 291° (WNW) 11:41:30 435.675 MHz FM
SO-50 30 Oct 11:28:25 11:30:00 12° 108° (ESE) 11:31:36 436.795 FM
FUNcube-1 30 Oct 11:34:59 11:38:50 33° 96° (E) 11:42:36 145.950 - 145.970 MHz USB
PCSat 30 Oct 11:40:10 11:45:34 60° 48° (NE) 11:50:56 145.825 MHz
Oscar 16 30 Oct 12:09:05 12:10:46 12° 48° (NE) 12:12:27 437.025 USB, Beacon 2401.1428
KITSAT 1 30 Oct 12:14:58 12:22:47 56° 118° (ESE) 12:30:37 435.175 FM
UKube-1 30 Oct 12:21:14 12:25:24 44° 293° (WNW) 12:29:32 145.840 MHz, 145.915 MHz
JAS-1B 30 Oct 12:22:11 12:25:31 16° 47° (NE) 12:28:57 435.800 - 435.900 CW/SSB
ZACube-1 30 Oct 12:27:53 12:32:08 75° 286° (WNW) 12:36:18 437.345 MHz
ISS 30 Oct 12:37:51 12:40:59 39° 153° (SSE) 12:44:08 145.800 FM
Uribyol 2 30 Oct 12:40:50 12:41:47 11° 46° (NE) 12:42:44 436.500 FM
ITAMSAT 1 30 Oct 12:47:48 12:49:22 11° 47° (NE) 12:50:56 435.822 SSB
AO-Echo 30 Oct 12:52:07 12:54:40 14° 50° (NE) 12:57:16 ?
Saudisat 1A 30 Oct 12:53:27 12:56:35 19° 18° (NNE) 12:59:43 436.775 MHz
Oscar 11 30 Oct 12:57:54 13:01:11 22° 299° (WNW) 13:04:28 145.825 FM, Beacon 2401.500 USB
Oscar 19 30 Oct 12:58:22 13:02:29 25° 59° (ENE) 13:06:36 437.125 CW, 437.150 USB
Sapphire 30 Oct 13:01:54 13:07:03 44° 243° (WSW) 13:12:10 437.095 MHz 1200 baud AX-25 AFSK
SO-50 30 Oct 13:05:09 13:09:40 70° 128° (SE) 13:14:21 436.795 FM
FUNcube-1 30 Oct 13:11:28 13:15:11 30° 295° (WNW) 13:18:51 145.950 - 145.970 MHz USB
HO-68 30 Oct 13:15:42 13:21:04 23° 313° (NW) 13:26:26 435.675 MHz FM
AO-7 30 Oct 13:17:12 13:20:30 13° 23° (NNE) 13:23:48 29.400 - 29.500 MHz
PCSat 30 Oct 13:24:03 13:28:41 29° 248° (WSW) 13:33:18 145.825 MHz
AO-27 30 Oct 13:32:02 13:36:04 23° 57° (ENE) 13:40:07 436.795 MHz FM
Gurwin Techsat 1B 30 Oct 13:42:17 13:45:37 17° 53° (NE) 13:48:57 435.225 FM
Oscar 16 30 Oct 13:44:04 13:49:05 55° 68° (ENE) 13:54:06 437.025 USB, Beacon 2401.1428
TMSAT-1 30 Oct 13:49:49 13:52:48 15° 51° (NE) 13:55:47 436.925 FM
UOSAT-12 30 Oct 13:55:32 13:59:31 29° 118° (ESE) 14:03:34 437.025 FM, 437.400 FM
ZACube-1 30 Oct 14:06:19 14:07:47 12° 306° (NW) 14:09:14 437.345 MHz
JAS-1B 30 Oct 14:09:34 14:15:14 76° 71° (ENE) 14:21:05 435.800 - 435.900 CW/SSB
KITSAT 1 30 Oct 14:10:29 14:18:21 53° 322° (NW) 14:26:16 435.175 FM
ISS 30 Oct 14:14:12 14:17:33 86° 352° (N) 14:20:54 145.800 FM
Uribyol 2 30 Oct 14:15:05 14:20:05 48° 66° (ENE) 14:25:06 436.500 FM
ITAMSAT 1 30 Oct 14:22:42 14:27:45 52° 67° (ENE) 14:32:50 435.822 SSB
AO-Echo 30 Oct 14:27:30 14:32:29 67° 71° (ENE) 14:37:40 ?
Saudisat 1A 30 Oct 14:32:46 14:37:06 51° 41° (NE) 14:41:25 436.775 MHz
Oscar 19 30 Oct 14:36:24 14:41:29 61° 258° (WSW) 14:46:35 437.125 CW, 437.150 USB
SO-50 30 Oct 14:46:34 14:50:39 30° 330° (NNW) 14:54:50 436.795 FM
AO-7 30 Oct 15:03:46 15:10:48 33° 48° (NE) 15:17:52 29.400 - 29.500 MHz
AO-27 30 Oct 15:09:55 15:15:07 70° 257° (WSW) 15:20:23 436.795 MHz FM
Gurwin Techsat 1B 30 Oct 15:19:31 15:24:50 82° 73° (ENE) 15:30:11 435.225 FM
Oscar 16 30 Oct 15:24:30 15:28:45 26° 268° (W) 15:33:01 437.025 USB, Beacon 2401.1428
TMSAT-1 30 Oct 15:26:35 15:31:52 73° 71° (ENE) 15:37:11 436.925 FM
UOSAT-12 30 Oct 15:34:49 15:39:26 57° 318° (NW) 15:44:08 437.025 FM, 437.400 FM
ISS 30 Oct 15:50:57 15:54:18 84° 192° (SSW) 15:57:39 145.800 FM
Uribyol 2 30 Oct 15:55:11 15:59:46 30° 266° (W) 16:04:22 436.500 FM
JAS-2 30 Oct 15:55:24 15:59:30 17° 42° (NE) 16:03:50 435.800 - 435.900 CW/SSB, 435.910 FM
JAS-1B 30 Oct 16:02:57 16:06:48 18° 273° (W) 16:10:42 435.800 - 435.900 CW/SSB
ITAMSAT 1 30 Oct 16:03:04 16:07:31 28° 267° (W) 16:12:00 435.822 SSB
AO-Echo 30 Oct 16:08:02 16:11:47 21° 271° (W) 16:15:38 ?
KITSAT 1 30 Oct 16:08:49 16:15:42 29° 350° (N) 16:22:36 435.175 FM
Saudisat 1A 30 Oct 16:12:39 16:16:30 30° 241° (WSW) 16:20:20 436.775 MHz
Uosat F 30 Oct 16:18:30 16:23:08 38° 64° (ENE) 16:27:48 435.120 FM
SO-50 30 Oct 16:29:37 16:32:38 17° 354° (N) 16:35:43 436.795 FM
AO-27 30 Oct 16:53:58 16:55:38 11° 276° (W) 16:57:18 436.795 MHz FM
AO-7 30 Oct 16:54:36 17:02:54 82° 251° (WSW) 17:11:16 29.400 - 29.500 MHz
Gurwin Techsat 1B 30 Oct 17:01:58 17:05:29 18° 272° (W) 17:09:00 435.225 FM
TMSAT-1 30 Oct 17:08:30 17:12:21 20° 271° (W) 17:16:13 436.925 FM
UOSAT-12 30 Oct 17:16:57 17:20:32 21° 341° (NNW) 17:24:09 437.025 FM, 437.400 FM
ISS 30 Oct 17:27:49 17:30:45 29° 212° (SSW) 17:33:41 145.800 FM
JAS-2 30 Oct 17:36:39 17:42:59 57° 66° (ENE) 17:50:08 435.800 - 435.900 CW/SSB, 435.910 FM
Uosat F 30 Oct 17:57:20 18:01:58 36° 263° (W) 18:06:38 435.120 FM
KITSAT 1 30 Oct 18:06:31 18:13:41 33° 19° (NNE) 18:20:48 435.175 FM
Hamsat 30 Oct 18:06:42 18:10:45 51° 71° (ENE) 18:14:49 145.90 MHz
SO-50 30 Oct 18:11:17 18:14:52 21° 19° (NNE) 18:18:31 436.795 FM
OPAL 30 Oct 18:17:55 18:21:49 23° 94° (E) 18:25:41 ?
HO-68 30 Oct 18:32:44 18:34:47 11° 31° (NNE) 18:36:49 435.675 MHz FM
AO-7 30 Oct 18:51:02 18:56:59 21° 273° (W) 19:03:00 29.400 - 29.500 MHz
UOSAT-12 30 Oct 18:59:19 19:02:21 16° 5° (N) 19:05:22 437.025 FM, 437.400 FM
JAS-2 30 Oct 19:22:35 19:28:25 35° 269° (W) 19:34:58 435.800 - 435.900 CW/SSB, 435.910 FM
Oscar 10/S400 30 Oct 19:28:37 19:52:44 43° 183° (S) 01:20:04 145.825 - 145.975 CW/USB, Beacon 145.810 USB
SO-67 30 Oct 19:32:55 19:36:16 55° 73° (ENE) 19:39:40 435.3500 MHz FM
Hamsat 30 Oct 19:43:56 19:47:00 20° 269° (W) 19:50:04 145.90 MHz
SO-50 30 Oct 19:51:41 19:56:25 54° 41° (NE) 20:01:13 436.795 FM
OPAL 30 Oct 19:56:12 20:01:06 59° 293° (WNW) 20:05:57 ?
KITSAT 1 30 Oct 20:02:27 20:10:33 69° 46° (NE) 20:18:36 435.175 FM
AO-40 30 Oct 20:09:51 01:07:01 31° 156° (SSE) 02:50:13 Beacon 2401.320
STRAND 1 30 Oct 20:12:18 20:17:10 40° 97° (E) 20:21:58 ?
HO-68 30 Oct 20:14:09 20:20:29 35° 55° (NE) 20:26:50 435.675 MHz FM
RS-15 30 Oct 20:30:10 20:36:40 18° 97° (E) 20:43:09 29.354 - 29.394 USB, Beacon 29.352 USB
UOSAT-12 30 Oct 20:39:48 20:43:57 29° 29° (NNE) 20:48:03 437.025 FM, 437.400 FM
Oscar 11 30 Oct 20:47:50 20:49:41 13° 55° (NE) 20:51:32 145.825 FM, Beacon 2401.500 USB
SO-67 30 Oct 21:07:56 21:09:35 13° 271° (W) 21:11:15 435.3500 MHz FM
SO-50 30 Oct 21:32:33 21:36:50 32° 241° (WSW) 21:41:08 436.795 FM
OPAL 30 Oct 21:36:58 21:39:03 13° 314° (NW) 21:41:07 ?
UKube-1 30 Oct 21:45:29 21:49:35 41° 67° (ENE) 21:53:43 145.840 MHz, 145.915 MHz
STRAND 1 30 Oct 21:51:38 21:56:19 36° 297° (WNW) 22:00:59 ?
ZACube-1 30 Oct 21:53:47 21:57:21 24° 62° (ENE) 22:00:51 437.345 MHz
KITSAT 1 30 Oct 21:58:18 22:05:33 38° 248° (WSW) 22:12:47 435.175 FM
HO-68 30 Oct 22:00:43 22:07:50 65° 256° (WSW) 22:15:01 435.675 MHz FM
UOSAT-12 30 Oct 22:19:50 22:24:36 78° 231° (SW) 22:29:16 437.025 FM, 437.400 FM
Oscar 11 30 Oct 22:20:51 22:25:10 79° 74° (ENE) 22:29:30 145.825 FM, Beacon 2401.500 USB
FUNcube-1 30 Oct 22:35:49 22:40:12 52° 70° (ENE) 22:44:30 145.950 - 145.970 MHz USB
RS-15 30 Oct 22:35:56 22:46:41 66° 121° (ESE) 22:57:27 29.354 - 29.394 USB, Beacon 29.352 USB
UKube-1 30 Oct 23:22:15 23:25:55 26° 266° (W) 23:29:37 145.840 MHz, 145.915 MHz
ZACube-1 30 Oct 23:29:05 23:33:29 51° 260° (W) 23:37:49 437.345 MHz
MaSat-1 30 Oct 23:39:38 23:43:23 66° 120° (ESE) 23:46:44 437.345 MHz
HO-68 30 Oct 23:53:27 23:57:00 14° 278° (W) 00:00:34 435.675 MHz FM
Oscar 11 30 Oct 23:59:43 00:01:55 14° 273° (W) 00:04:08 145.825 FM, Beacon 2401.500 USB
UOSAT-12 31 Oct 00:01:35 00:03:59 14° 250° (WSW) 00:06:21 437.025 FM, 437.400 FM
FUNcube-1 31 Oct 00:13:24 00:16:51 21° 268° (W) 00:20:17 145.950 - 145.970 MHz USB
RS-15 31 Oct 00:48:45 00:59:27 56° 329° (NNW) 01:10:20 29.354 - 29.394 USB, Beacon 29.352 USB
MaSat-1 31 Oct 01:16:40 01:19:03 17° 317° (NW) 01:21:17 437.345 MHz
JAS-1B 31 Oct 01:46:58 01:51:34 18° 87° (E) 01:56:37 435.800 - 435.900 CW/SSB
Oscar 16 31 Oct 01:52:17 01:54:30 13° 85° (E) 01:56:42 437.025 USB, Beacon 2401.1428
Sapphire 31 Oct 02:10:15 02:11:12 10° 101° (E) 02:12:09 437.095 MHz 1200 baud AX-25 AFSK
Uribyol 2 31 Oct 02:25:11 02:26:24 11° 83° (E) 02:27:37 436.500 FM
PCSat 31 Oct 02:29:09 02:32:33 17° 106° (ESE) 02:35:59 145.825 MHz
AO-Echo 31 Oct 02:30:35 02:33:53 16° 86° (E) 02:37:10 ?
ITAMSAT 1 31 Oct 02:32:21 02:34:20 12° 84° (E) 02:36:18 435.822 SSB
Oscar 19 31 Oct 02:42:50 02:47:26 32° 95° (E) 02:52:01 437.125 CW, 437.150 USB
RS-15 31 Oct 03:04:20 03:14:30 41° 2° (N) 03:24:55 29.354 - 29.394 USB, Beacon 29.352 USB
AO-27 31 Oct 03:18:00 03:22:34 29° 94° (E) 03:27:04 436.795 MHz FM
Oscar 16 31 Oct 03:29:34 03:34:44 78° 104° (ESE) 03:39:51 437.025 USB, Beacon 2401.1428
Gurwin Techsat 1B 31 Oct 03:31:06 03:35:14 22° 90° (E) 03:39:21 435.225 FM
JAS-1B 31 Oct 03:36:13 03:43:03 77° 105° (ESE) 03:51:16 435.800 - 435.900 CW/SSB
TMSAT-1 31 Oct 03:37:58 03:41:47 20° 89° (E) 03:45:35 436.925 FM
Sapphire 31 Oct 03:48:12 03:53:30 59° 120° (ESE) 03:58:51 437.095 MHz 1200 baud AX-25 AFSK
OPAL 31 Oct 04:01:33 04:04:25 15° 49° (NE) 04:07:16 ?
Uribyol 2 31 Oct 04:01:41 04:06:54 67° 103° (ESE) 04:12:04 436.500 FM
AO-Echo 31 Oct 04:08:00 04:13:23 88° 286° (WNW) 04:18:41 ?
ITAMSAT 1 31 Oct 04:09:31 04:14:47 73° 104° (ESE) 04:19:59 435.822 SSB
PCSat 31 Oct 04:09:47 04:15:13 87° 125° (SE) 04:20:41 145.825 MHz
Oscar 19 31 Oct 04:22:05 04:26:55 43° 294° (WNW) 04:31:43 437.125 CW, 437.150 USB
AO-7 31 Oct 04:50:53 04:57:30 25° 90° (E) 05:04:04 29.400 - 29.500 MHz
AO-27 31 Oct 04:57:16 05:02:19 49° 293° (WNW) 05:07:19 436.795 MHz FM
Oscar 16 31 Oct 05:09:52 05:13:33 20° 304° (NW) 05:17:14 437.025 USB, Beacon 2401.1428
Gurwin Techsat 1B 31 Oct 05:10:24 05:15:41 65° 290° (WNW) 05:20:56 435.225 FM
TMSAT-1 31 Oct 05:16:58 05:22:18 74° 288° (WNW) 05:27:35 436.925 FM
RS-15 31 Oct 05:18:32 05:29:27 59° 34° (NE) 05:40:44 29.354 - 29.394 USB, Beacon 29.352 USB
JAS-1B 31 Oct 05:27:42 05:33:18 29° 303° (WNW) 05:39:41 435.800 - 435.900 CW/SSB
Sapphire 31 Oct 05:32:16 05:37:15 35° 322° (NW) 05:42:15 437.095 MHz 1200 baud AX-25 AFSK
OPAL 31 Oct 05:37:27 05:42:31 73° 69° (ENE) 05:47:34 ?
Uribyol 2 31 Oct 05:41:53 05:45:57 24° 303° (WNW) 05:50:01 436.500 FM
AO-Echo 31 Oct 05:47:52 05:51:27 19° 306° (NW) 05:55:01 ?
ITAMSAT 1 31 Oct 05:49:50 05:53:47 22° 304° (WNW) 05:57:43 435.822 SSB
PCSat 31 Oct 05:54:41 05:59:18 28° 328° (NNW) 06:03:57 145.825 MHz
STRAND 1 31 Oct 05:56:24 05:59:54 19° 54° (NE) 06:03:24 ?
Uosat F 31 Oct 05:59:12 06:04:07 47° 100° (E) 06:08:58 435.120 FM
Saudisat 1A 31 Oct 06:24:08 06:27:22 20° 115° (ESE) 06:30:37 436.775 MHz
JAS-2 31 Oct 06:24:54 06:32:08 38° 92° (E) 06:39:13 435.800 - 435.900 CW/SSB, 435.910 FM
AO-27 31 Oct 06:39:27 06:40:40 11° 314° (NW) 06:41:54 436.795 MHz FM
AO-7 31 Oct 06:42:57 06:51:21 88° 292° (WNW) 06:59:43 29.400 - 29.500 MHz
Gurwin Techsat 1B 31 Oct 06:52:03 06:54:42 14° 310° (NW) 06:57:22 435.225 FM
TMSAT-1 31 Oct 06:58:20 07:01:23 16° 309° (NW) 07:04:24 436.925 FM
